ALTAIR PATHFINDER

Last updated on Sun Dec 08 2019 04:31:33 GMT+0000 (Coordinated Universal Time)

1 42711U 98067LS 19341.54612871 .05047864 12404-4 48655-3 0 9997 2 42711 51.6131 104.3875 0007128 330.3172 29.7448 16.37525667146451

Satellite not in orbit

ALTAIR PATHFINDER